Time,TemperatureF,DewpointF,PressureIn,WindDirection,WindDirectionDegrees,WindSpeedMPH,WindSpeedGustMPH,Humidity,HourlyPrecipIn,Conditions,Clouds,dailyrainin,SolarRadiationWatts/m^2,SoftwareType,DateUTC
2013-03-20 00:03:00,66.4,61.7,30.06,ESE,112,1.6,2.3,85,0.00,SCT,BKN,0.00,0.0,WeatherDisplay:10.37,2013-03-20 10:03:00,
2013-03-20 00:08:00,66.4,61.4,30.06,ESE,112,1.6,2.3,84,0.00,SCT,BKN,0.00,0.0,WeatherDisplay:10.37,2013-03-20 10:08:00,
2013-03-20 00:13:00,66.4,61.7,30.06,ESE,112,0.0,0.0,85,0.00,SCT,BKN,0.00,0.0,WeatherDisplay:10.37,2013-03-20 10:13:00,
2013-03-20 00:18:00,66.2,61.6,30.06,ESE,112,0.0,0.0,85,0.00,SCT,BKN,0.00,0.0,WeatherDisplay:10.37,2013-03-20 10:18:00,
2013-03-20 00:23:00,66.2,61.9,30.06,ESE,112,0.0,2.3,86,0.00,SCT,BKN,0.00,0.0,WeatherDisplay:10.37,2013-03-20 10:23:00,
2013-03-20 00:28:00,66.2,61.6,30.06,ESE,112,1.6,2.3,85,0.00,SCT,BKN,0.00,0.0,WeatherDisplay:10.37,2013-03-20 10:28:00,
2013-03-20 00:33:00,66.2,61.6,30.03,ESE,112,0.0,1.2,85,0.00,SCT,BKN,0.00,0.0,WeatherDisplay:10.37,2013-03-20 10:33:00,
2013-03-20 00:38:00,66.2,61.9,30.03,ESE,112,1.4,1.4,86,0.00,SCT,BKN,0.00,0.0,WeatherDisplay:10.37,2013-03-20 10:38:00,
2013-03-20 00:43:00,66.2,61.9,30.03,ESE,112,0.9,1.4,86,0.00,SCT,BKN,0.00,0.0,WeatherDisplay:10.37,2013-03-20 10:43:00,
2013-03-20 00:48:00,66.2,61.9,30.03,ESE,112,1.4,1.4,86,0.00,SCT,BKN,0.00,0.0,WeatherDisplay:10.37,2013-03-20 10:48:00,
2013-03-20 00:53:00,66.2,62.2,30.03,ESE,112,1.6,2.3,87,0.00,SCT,BKN,0.00,0.0,WeatherDisplay:10.37,2013-03-20 10:53:00,
2013-03-20 00:58:00,66.2,61.9,30.03,ESE,112,0.0,1.2,86,0.00,SCT,BKN,0.00,0.0,WeatherDisplay:10.37,2013-03-20 10:58:00,
2013-03-20 01:03:00,66.2,61.9,30.03,ESE,112,1.6,2.3,86,0.00,SCT,BKN,0.00,0.0,WeatherDisplay:10.37,2013-03-20 11:03:00,
2013-03-20 01:08:00,66.0,61.7,30.03,ESE,112,0.0,1.2,86,0.00,SCT,BKN,0.00,0.0,WeatherDisplay:10.37,2013-03-20 11:08:00,
2013-03-20 01:13:00,66.0,62.0,30.03,ESE,112,1.2,1.4,87,0.00,SCT,BKN,0.00,0.0,WeatherDisplay:10.37,2013-03-20 11:13:00,
2013-03-20 01:18:00,66.0,62.0,30.03,ESE,112,0.0,1.2,87,0.00,SCT,BKN,0.00,0.0,WeatherDisplay:10.37,2013-03-20 11:18:00,
2013-03-20 01:23:00,65.8,61.9,30.03,ESE,112,0.0,0.0,87,0.00,SCT,BKN,0.00,0.0,WeatherDisplay:10.37,2013-03-20 11:23:00,
2013-03-20 01:28:00,65.8,61.9,30.03,ESE,112,0.0,0.0,87,0.00,SCT,BKN,0.00,0.0,WeatherDisplay:10.37,2013-03-20 11:28:00,
2013-03-20 01:33:00,65.7,61.7,30.03,ESE,112,0.0,1.2,87,0.00,SCT,BKN,0.00,0.0,WeatherDisplay:10.37,2013-03-20 11:33:00,
2013-03-20 01:38:00,65.7,61.7,30.03,ESE,112,0.0,0.0,87,0.00,SCT,BKN,0.00,0.0,WeatherDisplay:10.37,2013-03-20 11:38:00,
2013-03-20 01:43:00,65.7,62.0,30.03,ESE,112,1.4,1.4,88,0.00,SCT,BKN,0.00,0.0,WeatherDisplay:10.37,2013-03-20 11:43:00,
2013-03-20 01:48:00,65.7,62.0,30.00,ESE,112,0.0,0.0,88,0.00,SCT,BKN,0.00,0.0,WeatherDisplay:10.37,2013-03-20 11:48:00,
2013-03-20 01:53:00,65.7,61.7,30.00,ESE,112,0.9,1.2,87,0.00,SCT,BKN,0.00,0.0,WeatherDisplay:10.37,2013-03-20 11:53:00,
2013-03-20 01:58:00,65.7,62.0,30.00,ESE,112,0.0,0.0,88,0.00,SCT,BKN,0.00,0.0,WeatherDisplay:10.37,2013-03-20 11:58:00,
2013-03-20 02:03:00,65.7,62.0,30.00,ESE,112,0.0,0.0,88,0.00,SCT,BKN,0.00,0.0,WeatherDisplay:10.37,2013-03-20 12:03:00,
2013-03-20 02:08:00,65.7,62.0,30.00,ESE,112,1.4,1.6,88,0.00,SCT,BKN,0.00,0.0,WeatherDisplay:10.37,2013-03-20 12:08:00,
2013-03-20 02:13:00,65.5,61.8,30.00,ESE,112,0.0,1.2,88,0.00,SCT,BKN,0.00,0.0,WeatherDisplay:10.37,2013-03-20 12:13:00,
2013-03-20 02:18:00,65.5,61.8,30.00,ESE,112,0.0,2.0,88,0.00,SCT,BKN,0.00,0.0,WeatherDisplay:10.37,2013-03-20 12:18:00,
2013-03-20 02:23:00,65.5,61.8,30.00,ESE,112,0.0,0.0,88,0.00,SCT,BKN,0.00,0.0,WeatherDisplay:10.37,2013-03-20 12:23:00,
2013-03-20 02:28:00,65.5,61.8,30.00,ESE,112,0.0,1.2,88,0.00,SCT,BKN,0.00,0.0,WeatherDisplay:10.37,2013-03-20 12:28:00,
2013-03-20 02:33:00,65.5,61.8,30.00,ESE,112,1.4,1.4,88,0.00,SCT,BKN,0.00,0.0,WeatherDisplay:10.37,2013-03-20 12:33:00,
2013-03-20 02:38:00,65.5,61.8,30.00,ESE,112,0.9,1.4,88,0.00,SCT,BKN,0.00,0.0,WeatherDisplay:10.37,2013-03-20 12:38:00,
2013-03-20 02:43:00,65.5,62.2,30.00,ESE,112,1.4,2.3,89,0.00,SCT,BKN,0.00,0.0,WeatherDisplay:10.37,2013-03-20 12:43:00,
2013-03-20 02:48:00,65.5,62.2,29.97,ESE,112,0.9,1.4,89,0.00,SCT,BKN,0.00,0.0,WeatherDisplay:10.37,2013-03-20 12:48:00,
2013-03-20 02:53:00,65.5,62.2,29.97,ESE,112,1.6,2.3,89,0.00,SCT,BKN,0.00,0.0,WeatherDisplay:10.37,2013-03-20 12:53:00,
2013-03-20 02:58:00,65.7,62.3,29.97,ESE,112,1.6,2.3,89,0.00,SCT,BKN,0.00,0.0,WeatherDisplay:10.37,2013-03-20 12:58:00,
2013-03-20 03:03:00,65.7,62.3,30.00,ESE,112,1.4,1.4,89,0.00,SCT,BKN,0.00,0.0,WeatherDisplay:10.37,2013-03-20 13:03:00,
2013-03-20 03:08:00,65.7,62.3,30.00,ESE,112,0.0,0.0,89,0.00,SCT,BKN,0.00,0.0,WeatherDisplay:10.37,2013-03-20 13:08:00,
2013-03-20 03:13:00,65.5,61.8,30.00,ESE,112,0.0,0.0,88,0.00,SCT,BKN,0.00,0.0,WeatherDisplay:10.37,2013-03-20 13:13:00,
2013-03-20 03:18:00,65.5,61.8,30.00,ESE,112,0.0,0.0,88,0.00,SCT,BKN,0.00,0.0,WeatherDisplay:10.37,2013-03-20 13:18:00,
2013-03-20 03:23:00,65.3,62.0,30.00,ESE,112,0.0,0.0,89,0.00,SCT,BKN,0.00,0.0,WeatherDisplay:10.37,2013-03-20 13:23:00,
2013-03-20 03:28:00,65.3,62.0,30.00,ESE,112,0.9,1.2,89,0.00,SCT,BKN,0.00,0.0,WeatherDisplay:10.37,2013-03-20 13:28:00,
2013-03-20 03:33:00,65.1,61.8,29.97,ESE,112,0.0,0.0,89,0.00,SCT,BKN,0.00,0.0,WeatherDisplay:10.37,2013-03-20 13:33:00,
2013-03-20 03:39:00,64.9,61.3,29.97,ESE,112,0.0,0.0,88,0.00,SCT,BKN,0.00,0.0,WeatherDisplay:10.37,2013-03-20 13:39:00,
2013-03-20 03:44:00,64.9,61.3,29.97,ESE,112,1.6,2.3,88,0.00,SCT,BKN,0.00,0.0,WeatherDisplay:10.37,2013-03-20 13:44:00,
2013-03-20 03:49:00,64.9,61.0,29.97,ESE,112,0.0,0.0,87,0.00,SCT,BKN,0.00,0.0,WeatherDisplay:10.37,2013-03-20 13:49:00,
2013-03-20 03:54:00,64.9,61.0,29.97,ESE,112,1.6,2.3,87,0.00,SCT,BKN,0.00,0.0,WeatherDisplay:10.37,2013-03-20 13:54:00,
2013-03-20 03:59:00,64.9,61.0,29.97,ESE,112,0.9,1.2,87,0.00,SCT,BKN,0.00,0.0,WeatherDisplay:10.37,2013-03-20 13:59:00,
2013-03-20 04:04:00,64.9,61.0,30.00,ESE,112,1.6,2.3,87,0.00,SCT,BKN,0.00,0.0,WeatherDisplay:10.37,2013-03-20 14:04:00,
2013-03-20 04:09:00,65.1,60.8,30.00,ESE,112,0.0,1.6,86,0.00,SCT,BKN,0.00,0.0,WeatherDisplay:10.37,2013-03-20 14:09:00,
2013-03-20 04:14:00,65.1,60.5,30.00,ESE,112,0.0,0.0,85,0.00,SCT,BKN,0.00,0.0,WeatherDisplay:10.37,2013-03-20 14:14:00,
2013-03-20 04:19:00,65.1,60.5,29.97,ESE,112,0.0,1.2,85,0.00,SCT,BKN,0.00,0.0,WeatherDisplay:10.37,2013-03-20 14:19:00,
2013-03-20 04:24:00,65.1,60.5,29.97,ESE,112,1.2,1.2,85,0.00,SCT,BKN,0.00,0.0,WeatherDisplay:10.37,2013-03-20 14:24:00,
2013-03-20 04:29:00,65.1,60.8,29.97,ESE,112,0.0,0.0,86,0.00,SCT,BKN,0.00,0.0,WeatherDisplay:10.37,2013-03-20 14:29:00,
2013-03-20 04:34:00,65.1,60.8,30.00,ESE,112,0.0,0.0,86,0.00,SCT,BKN,0.00,0.0,WeatherDisplay:10.37,2013-03-20 14:34:00,
2013-03-20 04:39:00,65.1,60.8,30.00,ESE,112,0.0,0.0,86,0.00,SCT,BKN,0.00,0.0,WeatherDisplay:10.37,2013-03-20 14:39:00,
2013-03-20 04:44:00,65.3,61.3,30.00,ESE,112,0.0,0.0,87,0.00,SCT,BKN,0.00,0.0,WeatherDisplay:10.37,2013-03-20 14:44:00,
2013-03-20 04:49:00,65.3,61.7,30.00,ESE,112,0.0,0.0,88,0.00,SCT,BKN,0.00,0.0,WeatherDisplay:10.37,2013-03-20 14:49:00,
2013-03-20 04:54:00,65.3,61.7,30.00,ESE,112,0.0,1.2,88,0.00,SCT,BKN,0.00,0.0,WeatherDisplay:10.37,2013-03-20 14:54:00,
2013-03-20 04:59:00,65.3,62.0,30.00,ESE,112,0.0,2.3,89,0.00,SCT,BKN,0.00,0.0,WeatherDisplay:10.37,2013-03-20 14:59:00,
2013-03-20 05:04:00,65.3,62.0,30.00,ESE,112,0.0,1.6,89,0.00,SCT,BKN,0.00,0.0,WeatherDisplay:10.37,2013-03-20 15:04:00,
2013-03-20 05:09:00,65.5,62.2,30.00,ESE,112,0.0,1.2,89,0.00,SCT,BKN,0.00,0.0,WeatherDisplay:10.37,2013-03-20 15:09:00,
2013-03-20 05:14:00,65.7,62.6,30.00,ESE,112,0.0,0.0,90,0.00,SCT,BKN,0.00,0.0,WeatherDisplay:10.37,2013-03-20 15:14:00,
2013-03-20 05:19:00,65.7,62.6,30.00,ESE,112,0.9,1.4,90,0.00,SCT,BKN,0.00,0.0,WeatherDisplay:10.37,2013-03-20 15:19:00,
2013-03-20 05:24:00,65.7,62.6,30.00,ESE,112,0.0,0.0,90,0.00,SCT,BKN,0.00,0.0,WeatherDisplay:10.37,2013-03-20 15:24:00,
2013-03-20 05:29:00,65.7,63.0,30.00,ESE,112,0.0,0.0,91,0.00,SCT,BKN,0.00,0.0,WeatherDisplay:10.37,2013-03-20 15:29:00,
2013-03-20 05:34:00,65.7,63.0,30.03,ESE,112,0.9,1.2,91,0.00,SCT,BKN,0.00,0.0,WeatherDisplay:10.37,2013-03-20 15:34:00,
2013-03-20 05:39:00,65.7,63.0,30.03,ESE,112,0.0,0.0,91,0.00,SCT,BKN,0.00,0.0,WeatherDisplay:10.37,2013-03-20 15:39:00,
2013-03-20 05:44:00,65.5,62.8,30.03,ESE,112,1.4,1.6,91,0.00,SCT,BKN,0.00,0.0,WeatherDisplay:10.37,2013-03-20 15:44:00,
2013-03-20 05:49:00,65.7,63.0,30.03,ESE,112,0.0,0.0,91,0.00,SCT,BKN,0.00,0.0,WeatherDisplay:10.37,2013-03-20 15:49:00,
2013-03-20 05:54:00,65.5,63.1,30.03,ESE,112,0.0,0.0,92,0.00,SCT,BKN,0.00,0.0,WeatherDisplay:10.37,2013-03-20 15:54:00,
2013-03-20 05:59:00,65.5,63.1,30.03,ESE,112,1.6,2.3,92,0.00,SCT,BKN,0.00,0.0,WeatherDisplay:10.37,2013-03-20 15:59:00,
2013-03-20 06:04:00,65.5,62.8,30.03,ESE,112,0.0,1.2,91,0.00,SCT,BKN,0.00,0.0,WeatherDisplay:10.37,2013-03-20 16:04:00,
2013-03-20 06:09:00,65.5,63.1,30.03,ESE,112,0.0,1.2,92,0.00,SCT,BKN,0.00,0.0,WeatherDisplay:10.37,2013-03-20 16:09:00,
2013-03-20 06:14:00,65.3,62.9,30.03,ESE,112,0.0,0.0,92,0.00,SCT,BKN,0.00,0.0,WeatherDisplay:10.37,2013-03-20 16:14:00,
2013-03-20 06:19:00,65.5,63.1,30.03,ESE,112,0.9,2.3,92,0.00,SCT,BKN,0.00,0.0,WeatherDisplay:10.37,2013-03-20 16:19:00,
2013-03-20 06:24:00,65.5,63.1,30.03,ESE,112,0.0,0.0,92,0.00,SCT,BKN,0.00,0.0,WeatherDisplay:10.37,2013-03-20 16:24:00,
2013-03-20 06:29:00,65.5,63.1,30.03,ESE,112,0.0,0.0,92,0.00,SCT,BKN,0.00,0.0,WeatherDisplay:10.37,2013-03-20 16:29:00,
2013-03-20 06:34:00,65.5,63.4,30.03,ESE,112,0.0,0.0,93,0.00,SCT,BKN,0.00,0.0,WeatherDisplay:10.37,2013-03-20 16:34:00,
2013-03-20 06:39:00,65.5,63.4,30.03,ESE,112,0.0,0.0,93,0.00,SCT,BKN,0.00,0.0,WeatherDisplay:10.37,2013-03-20 16:39:00,
2013-03-20 06:44:00,65.5,63.4,30.03,ESE,112,0.0,0.0,93,0.00,SCT,BKN,0.00,0.0,WeatherDisplay:10.37,2013-03-20 16:44:00,
2013-03-20 06:49:00,65.5,63.4,30.06,ESE,112,1.6,2.3,93,0.00,SCT,BKN,0.00,0.0,WeatherDisplay:10.37,2013-03-20 16:49:00,
2013-03-20 06:54:00,65.7,63.6,30.06,ESE,112,0.9,1.2,93,0.00,SCT,BKN,0.00,0.0,WeatherDisplay:10.37,2013-03-20 16:54:00,
2013-03-20 06:59:00,65.7,63.6,30.06,ESE,112,0.0,0.0,93,0.00,SCT,BKN,0.00,0.0,WeatherDisplay:10.37,2013-03-20 16:59:00,
2013-03-20 07:04:00,65.8,64.1,30.06,ESE,112,0.0,0.0,94,0.00,SCT,BKN,0.00,0.0,WeatherDisplay:10.37,2013-03-20 17:04:00,
2013-03-20 07:09:00,65.8,64.1,30.06,ESE,112,0.0,0.0,94,0.00,SCT,BKN,0.00,0.0,WeatherDisplay:10.37,2013-03-20 17:09:00,
2013-03-20 07:14:00,65.8,63.8,30.06,ESE,112,0.0,0.0,93,0.00,SCT,BKN,0.00,0.0,WeatherDisplay:10.37,2013-03-20 17:14:00,
2013-03-20 07:19:00,66.0,64.2,30.06,ESE,112,0.0,0.0,94,0.00,SCT,BKN,0.00,0.0,WeatherDisplay:10.37,2013-03-20 17:19:00,
2013-03-20 07:24:00,66.2,64.1,30.06,ESE,112,0.0,0.0,93,0.00,SCT,BKN,0.00,0.0,WeatherDisplay:10.37,2013-03-20 17:24:00,
2013-03-20 07:29:00,66.2,64.1,30.06,ESE,112,0.0,0.0,93,0.00,SCT,BKN,0.00,0.0,WeatherDisplay:10.37,2013-03-20 17:29:00,
2013-03-20 07:34:00,66.2,64.1,30.06,ESE,112,0.0,0.0,93,0.00,SCT,BKN,0.00,0.0,WeatherDisplay:10.37,2013-03-20 17:34:00,
2013-03-20 07:39:00,66.2,64.1,30.06,ESE,112,0.0,0.0,93,0.00,SCT,BKN,0.00,0.0,WeatherDisplay:10.37,2013-03-20 17:39:00,
2013-03-20 07:46:00,66.4,64.3,30.06,ESE,112,0.0,0.0,93,0.00,SCT,BKN,0.00,0.0,WeatherDisplay:10.37,2013-03-20 17:46:00,
2013-03-20 07:52:00,66.6,64.5,30.03,ESE,112,0.0,0.0,93,0.00,SCT,BKN,0.00,0.0,WeatherDisplay:10.37,2013-03-20 17:52:00,
2013-03-20 07:57:00,66.6,64.5,30.03,ESE,112,0.0,0.0,93,0.00,SCT,BKN,0.00,0.0,WeatherDisplay:10.37,2013-03-20 17:57:00,
2013-03-20 08:02:00,66.7,64.7,30.03,ESE,112,0.0,0.0,93,0.00,SCT,BKN,0.00,0.0,WeatherDisplay:10.37,2013-03-20 18:02:00,
2013-03-20 08:07:00,66.9,64.8,30.06,ESE,112,0.0,0.0,93,0.00,SCT,BKN,0.00,0.0,WeatherDisplay:10.37,2013-03-20 18:07:00,
2013-03-20 08:12:00,67.5,65.4,30.06,ESE,112,0.0,0.0,93,0.00,SCT,BKN,0.00,0.0,WeatherDisplay:10.37,2013-03-20 18:12:00,
2013-03-20 08:17:00,67.8,65.7,30.06,ESE,112,0.0,0.0,93,0.00,SCT,BKN,0.00,0.0,WeatherDisplay:10.37,2013-03-20 18:17:00,
2013-03-20 08:23:00,68.0,65.6,30.06,ESE,112,0.0,0.0,92,0.00,SCT,BKN,0.00,0.0,WeatherDisplay:10.37,2013-03-20 18:23:00,
2013-03-20 08:28:00,68.2,65.8,30.06,ESE,112,0.0,0.0,92,0.00,SCT,BKN,0.00,0.0,WeatherDisplay:10.37,2013-03-20 18:28:00,
2013-03-20 08:33:00,68.4,65.9,30.09,ESE,112,0.0,0.0,92,0.00,SCT,BKN,0.00,0.0,WeatherDisplay:10.37,2013-03-20 18:33:00,
2013-03-20 08:38:00,68.7,66.0,30.09,WSW,248,0.0,1.2,91,0.00,SCT,BKN,0.00,0.0,WeatherDisplay:10.37,2013-03-20 18:38:00,
2013-03-20 08:43:00,69.1,66.3,30.09,NE,45,0.0,0.0,91,0.00,SCT,BKN,0.00,0.0,WeatherDisplay:10.37,2013-03-20 18:43:00,
2013-03-20 08:48:00,69.3,66.2,30.06,NE,45,0.0,0.0,90,0.00,SCT,BKN,0.00,0.0,WeatherDisplay:10.37,2013-03-20 18:48:00,
2013-03-20 08:53:00,69.3,66.2,30.06,NE,45,0.0,0.0,90,0.00,SCT,BKN,0.00,0.0,WeatherDisplay:10.37,2013-03-20 18:53:00,
2013-03-20 08:58:00,69.6,66.6,30.06,ENE,68,0.0,0.0,90,0.00,SCT,BKN,0.00,0.0,WeatherDisplay:10.37,2013-03-20 18:58:00,
2013-03-20 09:03:00,70.2,67.1,30.09,East,90,0.0,0.0,90,0.00,SCT,BKN,0.00,0.0,WeatherDisplay:10.37,2013-03-20 19:03:00,
2013-03-20 09:08:00,70.3,66.6,30.09,SSW,202,1.2,4.6,88,0.00,SCT,BKN,0.00,0.0,WeatherDisplay:10.37,2013-03-20 19:08:00,
2013-03-20 09:13:00,70.7,66.6,30.09,ENE,68,0.0,0.0,87,0.00,SCT,BKN,0.00,125.0,WeatherDisplay:10.37,2013-03-20 19:13:00,
2013-03-20 09:18:00,71.1,66.7,30.09,WSW,248,0.0,1.2,86,0.00,SCT,BKN,0.00,0.0,WeatherDisplay:10.37,2013-03-20 19:18:00,
2013-03-20 09:23:00,71.1,66.3,30.09,SSW,202,0.0,0.0,85,0.00,SCT,BKN,0.00,0.0,WeatherDisplay:10.37,2013-03-20 19:23:00,
2013-03-20 09:28:00,71.6,66.5,30.09,SW,225,0.0,0.0,84,0.00,SCT,BKN,0.00,125.0,WeatherDisplay:10.37,2013-03-20 19:28:00,
2013-03-20 09:33:00,72.0,66.5,30.09,South,180,0.0,0.0,83,0.00,SCT,BKN,0.00,125.0,WeatherDisplay:10.37,2013-03-20 19:33:00,
2013-03-20 09:38:00,72.3,66.5,30.09,WNW,292,0.0,0.0,82,0.00,SCT,BKN,0.00,125.0,WeatherDisplay:10.37,2013-03-20 19:38:00,
2013-03-20 09:43:00,72.7,66.2,30.09,NE,45,0.0,0.0,80,0.00,SCT,BKN,0.00,125.0,WeatherDisplay:10.37,2013-03-20 19:43:00,
2013-03-20 09:48:00,72.9,65.6,30.09,NNW,338,0.0,2.9,78,0.00,SCT,BKN,0.00,125.0,WeatherDisplay:10.37,2013-03-20 19:48:00,
2013-03-20 09:53:00,73.6,65.2,30.09,WNW,292,1.4,2.9,75,0.00,SCT,BKN,0.00,250.0,WeatherDisplay:10.37,2013-03-20 19:53:00,
2013-03-20 09:58:00,74.7,65.8,30.09,West,270,1.2,2.2,74,0.00,SCT,BKN,0.00,250.0,WeatherDisplay:10.37,2013-03-20 19:58:00,
2013-03-20 10:03:00,74.8,64.4,30.09,South,180,0.0,0.0,70,0.00,SCT,BKN,0.00,125.0,WeatherDisplay:10.37,2013-03-20 20:03:00,
2013-03-20 10:08:00,75.2,64.7,30.09,SW,225,1.6,3.8,70,0.00,SCT,BKN,0.00,125.0,WeatherDisplay:10.37,2013-03-20 20:08:00,
2013-03-20 10:13:00,75.2,62.6,30.09,SW,225,2.0,4.0,65,0.00,SCT,BKN,0.00,125.0,WeatherDisplay:10.37,2013-03-20 20:13:00,
2013-03-20 10:18:00,75.4,61.9,30.09,NNW,338,0.9,3.5,63,0.00,SCT,BKN,0.00,125.0,WeatherDisplay:10.37,2013-03-20 20:18:00,
2013-03-20 10:23:00,75.6,61.6,30.09,West,270,0.9,2.3,62,0.00,SCT,BKN,0.00,125.0,WeatherDisplay:10.37,2013-03-20 20:23:00,
2013-03-20 10:28:00,75.7,60.4,30.09,SSW,202,2.4,4.7,59,0.00,SCT,BKN,0.00,250.0,WeatherDisplay:10.37,2013-03-20 20:28:00,
2013-03-20 10:33:00,76.1,60.2,30.06,West,270,2.6,3.5,58,0.00,SCT,BKN,0.00,125.0,WeatherDisplay:10.37,2013-03-20 20:33:00,
2013-03-20 10:38:00,76.3,59.9,30.06,NW,315,1.6,2.9,57,0.00,SCT,BKN,0.00,125.0,WeatherDisplay:10.37,2013-03-20 20:38:00,
2013-03-20 10:43:00,76.3,58.9,30.06,West,270,4.5,6.9,55,0.00,SCT,BKN,0.00,125.0,WeatherDisplay:10.37,2013-03-20 20:43:00,
2013-03-20 10:49:00,76.5,60.1,30.06,NNE,22,4.3,4.6,57,0.00,SCT,BKN,0.00,250.0,WeatherDisplay:10.37,2013-03-20 20:49:00,
2013-03-20 10:55:00,77.2,61.7,30.06,WNW,292,1.4,3.5,59,0.00,SCT,BKN,0.00,250.0,WeatherDisplay:10.37,2013-03-20 20:55:00,
2013-03-20 11:00:00,77.4,62.4,30.06,WSW,248,4.3,4.6,60,0.00,SCT,BKN,0.00,500.0,WeatherDisplay:10.37,2013-03-20 21:00:00,
2013-03-20 11:05:00,77.7,62.2,30.06,ENE,68,2.4,2.9,59,0.00,SCT,BKN,0.00,250.0,WeatherDisplay:10.37,2013-03-20 21:05:00,
2013-03-20 11:10:00,77.7,62.2,30.06,WNW,292,2.6,5.8,59,0.00,SCT,BKN,0.00,125.0,WeatherDisplay:10.37,2013-03-20 21:10:00,
2013-03-20 11:15:00,78.1,63.0,30.06,WSW,240,2.0,0.0,60,0.00,SCT,BKN,0.00,250.0,WeatherDisplay:10.37,2013-03-20 21:15:00,
2013-03-20 11:20:00,78.1,63.1,30.06,West,270,3.3,5.8,60,0.00,SCT,BKN,0.00,250.0,WeatherDisplay:10.37,2013-03-20 21:20:00,
2013-03-20 11:25:00,77.6,62.1,30.06,WSW,243,6.0,0.0,59,0.00,SCT,BKN,0.00,250.0,WeatherDisplay:10.37,2013-03-20 21:25:00,
2013-03-20 11:30:00,77.0,60.1,30.06,WSW,242,3.0,0.0,56,0.00,SCT,BKN,0.00,625.0,WeatherDisplay:10.37,2013-03-20 21:30:00,
2013-03-20 11:35:00,77.4,61.9,30.06,NW,315,4.0,4.6,59,0.00,SCT,BKN,0.00,125.0,WeatherDisplay:10.37,2013-03-20 21:35:00,
2013-03-20 11:40:00,78.4,64.3,30.06,SW,225,3.6,5.8,62,0.00,SCT,BKN,0.00,250.0,WeatherDisplay:10.37,2013-03-20 21:40:00,
2013-03-20 11:45:00,78.6,64.0,30.06,NNW,338,3.3,4.0,61,0.00,SCT,BKN,0.00,500.0,WeatherDisplay:10.37,2013-03-20 21:45:00,
2013-03-20 11:50:00,78.9,63.9,30.06,WNW,290,5.0,0.0,60,0.00,SCT,BKN,0.00,1241.0,WeatherDisplay:10.37,2013-03-20 21:50:00,
2013-03-20 11:55:00,80.1,64.4,30.06,SW,225,3.3,5.8,59,0.00,SCT,BKN,0.00,500.0,WeatherDisplay:10.37,2013-03-20 21:55:00,
2013-03-20 12:00:00,80.2,63.1,30.06,South,180,1.4,5.8,56,0.00,SCT,BKN,0.00,750.0,WeatherDisplay:10.37,2013-03-20 22:00:00,
2013-03-20 12:05:00,80.4,62.3,30.06,West,270,2.0,0.0,54,0.00,SCT,BKN,0.00,1125.0,WeatherDisplay:10.37,2013-03-20 22:05:00,
2013-03-20 12:10:00,80.6,62.4,30.06,NNW,338,2.6,8.1,54,0.00,SCT,BKN,0.00,1125.0,WeatherDisplay:10.37,2013-03-20 22:10:00,
2013-03-20 12:15:00,79.8,60.6,30.06,NW,304,5.0,0.0,52,0.00,SCT,BKN,0.00,375.0,WeatherDisplay:10.37,2013-03-20 22:15:00,
2013-03-20 12:20:00,79.7,62.6,30.06,WNW,284,2.0,0.0,56,0.00,SCT,BKN,0.00,1250.0,WeatherDisplay:10.37,2013-03-20 22:20:00,
2013-03-20 12:25:00,81.0,63.8,30.06,WSW,248,3.0,0.0,56,0.00,SCT,BKN,0.00,375.0,WeatherDisplay:10.37,2013-03-20 22:25:00,
2013-03-20 12:30:00,80.4,62.7,30.06,WSW,249,5.0,0.0,55,0.00,SCT,BKN,0.00,375.0,WeatherDisplay:10.37,2013-03-20 22:30:00,
2013-03-20 12:35:00,79.2,62.6,30.03,WSW,248,2.9,5.8,57,0.00,SCT,BKN,0.00,375.0,WeatherDisplay:10.37,2013-03-20 22:35:00,
2013-03-20 12:41:00,81.1,64.5,30.03,NW,315,3.3,5.8,57,0.00,SCT,BKN,0.00,1250.0,WeatherDisplay:10.37,2013-03-20 22:41:00,
2013-03-20 12:46:00,82.2,64.4,30.03,SW,225,4.3,5.8,55,0.00,SCT,BKN,0.00,1375.0,WeatherDisplay:10.37,2013-03-20 22:46:00,
2013-03-20 12:51:00,83.5,63.4,30.06,SW,225,4.3,5.8,51,0.00,SCT,BKN,0.00,1125.0,WeatherDisplay:10.37,2013-03-20 22:51:00,
2013-03-20 12:56:00,83.7,62.5,30.06,SSW,202,4.0,4.6,49,0.00,SCT,BKN,0.00,1125.0,WeatherDisplay:10.37,2013-03-20 22:56:00,
2013-03-20 13:01:00,83.8,62.6,30.06,SSW,202,1.6,3.6,49,0.00,SCT,BKN,0.00,500.0,WeatherDisplay:10.37,2013-03-20 23:01:00,
2013-03-20 13:06:00,82.0,61.0,30.06,West,270,3.3,5.8,49,0.00,SCT,BKN,0.00,875.0,WeatherDisplay:10.37,2013-03-20 23:06:00,
2013-03-20 13:12:00,82.8,62.2,30.06,South,180,3.3,4.6,50,0.00,SCT,BKN,0.00,1125.0,WeatherDisplay:10.37,2013-03-20 23:12:00,
2013-03-20 13:17:00,81.9,61.4,30.06,West,270,4.7,6.9,50,0.00,SCT,BKN,0.00,375.0,WeatherDisplay:10.37,2013-03-20 23:17:00,
2013-03-20 13:22:00,80.8,62.1,30.06,NW,315,2.6,4.6,53,0.00,SCT,BKN,0.00,375.0,WeatherDisplay:10.37,2013-03-20 23:22:00,
2013-03-20 13:33:00,81.3,62.0,30.06,West,270,4.7,7.4,52,0.00,SCT,BKN,0.00,750.0,WeatherDisplay:10.37,2013-03-20 23:33:00,
2013-03-20 13:38:00,82.0,63.2,30.06,SW,225,3.3,7.8,53,0.00,SCT,BKN,0.00,625.0,WeatherDisplay:10.37,2013-03-20 23:38:00,
2013-03-20 13:43:00,80.4,61.7,30.06,WNW,292,6.2,8.1,53,0.00,SCT,BKN,0.00,250.0,WeatherDisplay:10.37,2013-03-20 23:43:00,
2013-03-20 13:48:00,79.7,62.6,30.06,NW,315,3.8,4.6,56,0.00,SCT,BKN,0.00,625.0,WeatherDisplay:10.37,2013-03-20 23:48:00,
2013-03-20 13:53:00,81.1,62.9,30.06,South,180,2.6,3.5,54,0.00,SCT,BKN,0.00,1250.0,WeatherDisplay:10.37,2013-03-20 23:53:00,
2013-03-20 13:58:00,82.2,63.9,30.06,SW,225,2.4,4.6,54,0.00,SCT,BKN,0.00,875.0,WeatherDisplay:10.37,2013-03-20 23:58:00,
2013-03-20 14:03:00,81.5,63.3,30.03,WNW,292,2.2,4.6,54,0.00,SCT,BKN,0.00,750.0,WeatherDisplay:10.37,2013-03-21 00:03:00,
2013-03-20 14:08:00,82.4,64.1,30.03,SW,225,2.9,5.8,54,0.00,SCT,BKN,0.00,375.0,WeatherDisplay:10.37,2013-03-21 00:08:00,
2013-03-20 14:13:00,83.3,64.4,30.03,SSW,202,2.4,4.6,53,0.00,SCT,BKN,0.00,750.0,WeatherDisplay:10.37,2013-03-21 00:13:00,
2013-03-20 14:18:00,82.8,62.2,30.03,South,180,2.6,5.8,50,0.00,SCT,BKN,0.00,250.0,WeatherDisplay:10.37,2013-03-21 00:18:00,
2013-03-20 14:24:00,82.9,64.0,30.03,NNW,338,2.6,4.6,53,0.00,SCT,BKN,0.00,1250.0,WeatherDisplay:10.37,2013-03-21 00:24:00,
2013-03-20 14:30:00,83.5,63.4,30.03,SSW,202,4.0,6.0,51,0.00,SCT,BKN,0.00,1250.0,WeatherDisplay:10.37,2013-03-21 00:30:00,
2013-03-20 14:35:00,84.7,61.7,30.03,SSW,202,3.8,4.6,46,0.00,SCT,BKN,0.00,250.0,WeatherDisplay:10.37,2013-03-21 00:35:00,
2013-03-20 14:40:00,83.3,61.0,30.03,South,180,3.6,3.6,47,0.00,SCT,BKN,0.00,375.0,WeatherDisplay:10.37,2013-03-21 00:40:00,
2013-03-20 14:45:00,83.7,61.3,30.03,SW,225,6.4,8.1,47,0.00,SCT,BKN,0.00,875.0,WeatherDisplay:10.37,2013-03-21 00:45:00,
2013-03-20 14:50:00,85.1,62.6,30.03,NNW,338,4.3,5.4,47,0.00,SCT,BKN,0.00,625.0,WeatherDisplay:10.37,2013-03-21 00:50:00,
2013-03-20 14:55:00,85.6,59.9,30.03,West,270,4.9,5.8,42,0.00,SCT,BKN,0.00,1125.0,WeatherDisplay:10.37,2013-03-21 00:55:00,
2013-03-20 15:00:00,86.4,59.9,30.03,SW,225,2.2,5.8,41,0.00,SCT,BKN,0.00,1125.0,WeatherDisplay:10.37,2013-03-21 01:00:00,
2013-03-20 15:05:00,86.2,59.7,30.03,South,180,3.3,5.8,41,0.00,SCT,BKN,0.00,1000.0,WeatherDisplay:10.37,2013-03-21 01:05:00,
2013-03-20 15:10:00,85.8,61.4,30.03,SW,225,2.2,4.0,44,0.00,SCT,BKN,0.00,1000.0,WeatherDisplay:10.37,2013-03-21 01:10:00,
2013-03-20 15:15:00,85.3,60.3,30.03,South,180,3.3,5.8,43,0.00,SCT,BKN,0.00,875.0,WeatherDisplay:10.37,2013-03-21 01:15:00,
2013-03-20 15:20:00,84.4,60.1,30.03,WSW,248,3.1,8.1,44,0.00,SCT,BKN,0.00,875.0,WeatherDisplay:10.37,2013-03-21 01:20:00,
2013-03-20 15:25:00,84.2,60.6,30.03,SW,225,3.1,5.8,45,0.00,SCT,BKN,0.00,500.0,WeatherDisplay:10.37,2013-03-21 01:25:00,
2013-03-20 15:30:00,82.9,62.4,30.03,NW,315,2.6,3.5,50,0.00,SCT,BKN,0.00,250.0,WeatherDisplay:10.37,2013-03-21 01:30:00,
2013-03-20 15:35:00,83.7,63.6,30.03,WNW,292,2.4,4.6,51,0.00,SCT,BKN,0.00,250.0,WeatherDisplay:10.37,2013-03-21 01:35:00,
2013-03-20 15:41:00,81.9,62.0,30.03,West,270,5.4,6.9,51,0.00,SCT,BKN,0.00,125.0,WeatherDisplay:10.37,2013-03-21 01:41:00,
2013-03-20 15:46:00,82.4,63.0,30.03,NNE,22,2.0,4.6,52,0.00,SCT,BKN,0.00,500.0,WeatherDisplay:10.37,2013-03-21 01:46:00,
2013-03-20 15:51:00,81.3,62.0,30.03,NNW,338,2.2,5.9,52,0.00,SCT,BKN,0.00,250.0,WeatherDisplay:10.37,2013-03-21 01:51:00,
2013-03-20 15:56:00,80.4,62.8,30.03,NW,315,0.9,2.3,55,0.00,SCT,BKN,0.00,250.0,WeatherDisplay:10.37,2013-03-21 01:56:00,
2013-03-20 16:01:00,81.1,62.4,30.03,NW,315,4.3,5.8,53,0.00,SCT,BKN,0.00,125.0,WeatherDisplay:10.37,2013-03-21 02:01:00,
2013-03-20 16:06:00,81.3,62.6,30.03,SSW,202,2.9,5.8,53,0.00,SCT,BKN,0.00,500.0,WeatherDisplay:10.37,2013-03-21 02:06:00,
2013-03-20 16:11:00,82.2,64.4,30.03,NNW,338,2.9,5.8,55,0.00,SCT,BKN,0.00,500.0,WeatherDisplay:10.37,2013-03-21 02:11:00,
2013-03-20 16:17:00,83.3,63.8,30.03,South,180,4.5,5.8,52,0.00,SCT,BKN,0.00,375.0,WeatherDisplay:10.37,2013-03-21 02:17:00,
2013-03-20 16:22:00,84.2,64.1,30.03,SSW,202,1.6,3.5,51,0.00,SCT,BKN,0.00,250.0,WeatherDisplay:10.37,2013-03-21 02:22:00,
2013-03-20 16:27:00,82.9,62.4,30.03,WSW,248,2.2,3.5,50,0.00,SCT,BKN,0.00,250.0,WeatherDisplay:10.37,2013-03-21 02:27:00,
2013-03-20 16:32:00,82.6,61.5,30.03,NW,315,3.1,4.6,49,0.00,SCT,BKN,0.00,125.0,WeatherDisplay:10.37,2013-03-21 02:32:00,
2013-03-20 16:37:00,80.8,59.8,30.03,ESE,112,2.4,5.8,49,0.00,SCT,BKN,0.00,125.0,WeatherDisplay:10.37,2013-03-21 02:37:00,
2013-03-20 16:42:00,80.2,62.1,30.03,WSW,248,2.0,4.6,54,0.00,SCT,BKN,0.00,125.0,WeatherDisplay:10.37,2013-03-21 02:42:00,
2013-03-20 16:47:00,80.2,62.6,30.03,WNW,292,3.3,4.6,55,0.00,SCT,BKN,0.00,250.0,WeatherDisplay:10.37,2013-03-21 02:47:00,
2013-03-20 16:52:00,82.6,61.5,30.03,North,0,2.9,4.3,49,0.00,SCT,BKN,0.00,125.0,WeatherDisplay:10.37,2013-03-21 02:52:00,
2013-03-20 16:57:00,82.4,62.5,30.03,West,270,2.6,3.5,51,0.00,SCT,BKN,0.00,125.0,WeatherDisplay:10.37,2013-03-21 02:57:00,
2013-03-20 17:02:00,81.1,61.3,30.03,NW,315,2.0,3.5,51,0.00,SCT,BKN,0.00,125.0,WeatherDisplay:10.37,2013-03-21 03:02:00,
2013-03-20 17:07:00,81.1,61.8,30.03,SW,225,4.0,4.6,52,0.00,SCT,BKN,0.00,0.0,WeatherDisplay:10.37,2013-03-21 03:07:00,
2013-03-20 17:12:00,79.9,60.7,30.03,SSW,202,3.8,5.8,52,0.00,SCT,BKN,0.00,0.0,WeatherDisplay:10.37,2013-03-21 03:12:00,
2013-03-20 17:17:00,78.4,59.9,30.03,WNW,292,2.2,3.5,53,0.00,SCT,BKN,0.00,0.0,WeatherDisplay:10.37,2013-03-21 03:17:00,
2013-03-20 17:22:00,77.5,60.6,30.06,SW,225,2.0,4.6,56,0.00,SCT,BKN,0.00,0.0,WeatherDisplay:10.37,2013-03-21 03:22:00,
2013-03-20 17:27:00,76.8,61.4,30.06,WNW,292,2.4,5.8,59,0.00,SCT,BKN,0.00,0.0,WeatherDisplay:10.37,2013-03-21 03:27:00,
2013-03-20 17:32:00,76.8,62.3,30.06,SSW,202,0.0,3.5,61,0.00,SCT,BKN,0.00,0.0,WeatherDisplay:10.37,2013-03-21 03:32:00,
2013-03-20 17:37:00,77.4,63.3,30.06,South,180,2.9,4.6,62,0.00,SCT,BKN,0.00,0.0,WeatherDisplay:10.37,2013-03-21 03:37:00,
2013-03-20 17:42:00,77.9,64.3,30.06,South,180,1.6,3.5,63,0.00,SCT,BKN,0.00,0.0,WeatherDisplay:10.37,2013-03-21 03:42:00,
2013-03-20 17:47:00,77.0,63.9,30.06,West,270,3.6,4.6,64,0.00,SCT,BKN,0.00,0.0,WeatherDisplay:10.37,2013-03-21 03:47:00,
2013-03-20 17:52:00,76.5,64.3,30.06,West,270,2.0,2.3,66,0.00,SCT,BKN,0.00,0.0,WeatherDisplay:10.37,2013-03-21 03:52:00,
2013-03-20 17:57:00,75.9,63.7,30.06,WNW,292,1.6,3.5,66,0.00,SCT,BKN,0.00,0.0,WeatherDisplay:10.37,2013-03-21 03:57:00,
2013-03-20 18:00:00,75.7,63.6,30.06,NW,315,0.9,2.4,66,0.00,SCT,BKN,0.00,0.0,WeatherDisplay:10.37,2013-03-21 04:00:00,
2013-03-20 18:02:00,75.4,63.7,30.06,NW,315,1.4,3.5,67,0.00,SCT,BKN,0.00,0.0,WeatherDisplay:10.37,2013-03-21 04:02:00,
2013-03-20 18:07:00,75.0,63.7,30.06,North,0,1.2,1.6,68,0.00,SCT,BKN,0.00,0.0,WeatherDisplay:10.37,2013-03-21 04:07:00,
2013-03-20 18:12:00,75.0,64.2,30.06,NNE,22,1.2,3.5,69,0.00,SCT,BKN,0.00,0.0,WeatherDisplay:10.37,2013-03-21 04:12:00,
2013-03-20 18:17:00,75.4,64.5,30.06,North,0,1.6,3.6,69,0.00,SCT,BKN,0.00,0.0,WeatherDisplay:10.37,2013-03-21 04:17:00,
2013-03-20 18:22:00,75.2,63.9,30.06,West,270,0.9,2.3,68,0.00,SCT,BKN,0.00,0.0,WeatherDisplay:10.37,2013-03-21 04:22:00,
2013-03-20 18:27:00,74.7,63.8,30.06,WNW,292,3.1,4.6,69,0.00,SCT,BKN,0.00,0.0,WeatherDisplay:10.37,2013-03-21 04:27:00,
2013-03-20 18:32:00,74.1,63.3,30.06,WSW,248,0.0,0.0,69,0.00,SCT,BKN,0.00,0.0,WeatherDisplay:10.37,2013-03-21 04:32:00,
2013-03-20 18:37:00,73.9,63.5,30.03,WNW,292,1.6,2.3,70,0.00,SCT,BKN,0.00,0.0,WeatherDisplay:10.37,2013-03-21 04:37:00,
2013-03-20 18:42:00,73.8,63.4,30.03,NE,45,0.0,0.0,70,0.00,SCT,BKN,0.00,0.0,WeatherDisplay:10.37,2013-03-21 04:42:00,
2013-03-20 18:47:00,73.6,63.2,30.03,ENE,68,0.9,1.2,70,0.00,SCT,BKN,0.00,0.0,WeatherDisplay:10.37,2013-03-21 04:47:00,
2013-03-20 18:52:00,73.4,63.4,30.06,ENE,68,0.0,0.0,71,0.00,SCT,BKN,0.00,0.0,WeatherDisplay:10.37,2013-03-21 04:52:00,
2013-03-20 18:57:00,73.2,64.4,30.06,West,270,2.4,2.4,74,0.00,SCT,BKN,0.00,0.0,WeatherDisplay:10.37,2013-03-21 04:57:00,
2013-03-20 19:02:00,73.2,65.2,30.06,NW,315,0.9,2.3,76,0.00,SCT,BKN,0.00,0.0,WeatherDisplay:10.37,2013-03-21 05:02:00,
2013-03-20 19:07:00,73.2,65.2,30.06,West,270,1.2,1.2,76,0.00,SCT,BKN,0.00,0.0,WeatherDisplay:10.37,2013-03-21 05:07:00,
2013-03-20 19:12:00,73.0,65.4,30.06,West,270,1.2,2.3,77,0.00,SCT,BKN,0.00,0.0,WeatherDisplay:10.37,2013-03-21 05:12:00,
2013-03-20 19:17:00,72.9,64.8,30.06,West,270,0.0,0.0,76,0.00,SCT,BKN,0.00,0.0,WeatherDisplay:10.37,2013-03-21 05:17:00,
2013-03-20 19:22:00,72.9,65.2,30.06,WSW,248,0.0,1.2,77,0.00,SCT,BKN,0.00,0.0,WeatherDisplay:10.37,2013-03-21 05:22:00,
2013-03-20 19:27:00,72.9,65.2,30.06,WNW,292,0.0,2.3,77,0.00,SCT,BKN,0.00,0.0,WeatherDisplay:10.37,2013-03-21 05:27:00,
2013-03-20 19:32:00,72.7,65.4,30.06,SSW,202,1.6,3.5,78,0.00,SCT,BKN,0.00,0.0,WeatherDisplay:10.37,2013-03-21 05:32:00,
2013-03-20 19:37:00,72.5,65.2,30.09,South,180,0.0,2.3,78,0.00,SCT,BKN,0.00,0.0,WeatherDisplay:10.37,2013-03-21 05:37:00,
2013-03-20 19:42:00,72.3,65.1,30.09,NW,315,1.4,1.4,78,0.00,SCT,BKN,0.00,0.0,WeatherDisplay:10.37,2013-03-21 05:42:00,
2013-03-20 19:48:00,72.1,64.5,30.06,WNW,292,0.9,2.4,77,0.00,SCT,BKN,0.00,0.0,WeatherDisplay:10.37,2013-03-21 05:48:00,
2013-03-20 19:53:00,72.0,64.7,30.06,SW,225,1.2,2.3,78,0.00,SCT,BKN,0.00,0.0,WeatherDisplay:10.37,2013-03-21 05:53:00,
2013-03-20 19:58:00,71.8,64.5,30.06,SE,135,0.0,0.0,78,0.00,SCT,BKN,0.00,0.0,WeatherDisplay:10.37,2013-03-21 05:58:00,
2013-03-20 20:03:00,71.8,64.9,30.09,NNW,338,2.4,3.8,79,0.00,SCT,BKN,0.00,0.0,WeatherDisplay:10.37,2013-03-21 06:03:00,
2013-03-20 20:08:00,71.6,64.4,30.09,ENE,68,0.0,0.0,78,0.00,SCT,BKN,0.00,0.0,WeatherDisplay:10.37,2013-03-21 06:08:00,
2013-03-20 20:13:00,71.2,64.0,30.09,ESE,112,0.0,0.0,78,0.00,SCT,BKN,0.00,0.0,WeatherDisplay:10.37,2013-03-21 06:13:00,
2013-03-20 20:18:00,71.1,64.2,30.09,ESE,112,0.0,0.0,79,0.00,SCT,BKN,0.00,0.0,WeatherDisplay:10.37,2013-03-21 06:18:00,
2013-03-20 20:23:00,70.7,63.9,30.09,ESE,112,0.0,0.0,79,0.00,SCT,BKN,0.00,0.0,WeatherDisplay:10.37,2013-03-21 06:23:00,
2013-03-20 20:28:00,70.5,63.7,30.09,ESE,112,0.0,0.0,79,0.00,SCT,BKN,0.00,0.0,WeatherDisplay:10.37,2013-03-21 06:28:00,
2013-03-20 20:33:00,70.5,63.7,30.09,ESE,112,1.4,1.6,79,0.00,SCT,BKN,0.00,0.0,WeatherDisplay:10.37,2013-03-21 06:33:00,
2013-03-20 20:38:00,70.3,63.9,30.09,ESE,112,0.0,0.0,80,0.00,SCT,BKN,0.00,0.0,WeatherDisplay:10.37,2013-03-21 06:38:00,
2013-03-20 20:43:00,70.2,63.7,30.09,ESE,112,0.0,1.2,80,0.00,SCT,BKN,0.00,0.0,WeatherDisplay:10.37,2013-03-21 06:43:00,
2013-03-20 20:48:00,70.0,63.5,30.12,ESE,112,0.0,0.0,80,0.00,SCT,BKN,0.00,0.0,WeatherDisplay:10.37,2013-03-21 06:48:00,
2013-03-20 20:53:00,70.0,63.9,30.12,ESE,112,0.0,0.0,81,0.00,SCT,BKN,0.00,0.0,WeatherDisplay:10.37,2013-03-21 06:53:00,
2013-03-20 20:58:00,69.8,63.7,30.12,ESE,112,0.0,0.0,81,0.00,SCT,BKN,0.00,0.0,WeatherDisplay:10.37,2013-03-21 06:58:00,
2013-03-20 21:03:00,69.6,63.9,30.12,ESE,112,0.0,0.0,82,0.00,SCT,BKN,0.00,0.0,WeatherDisplay:10.37,2013-03-21 07:03:00,
2013-03-20 21:08:00,69.6,63.9,30.12,ESE,112,0.0,0.0,82,0.00,SCT,BKN,0.00,0.0,WeatherDisplay:10.37,2013-03-21 07:08:00,
2013-03-20 21:13:00,69.4,63.7,30.12,ESE,112,0.0,0.0,82,0.00,SCT,BKN,0.00,0.0,WeatherDisplay:10.37,2013-03-21 07:13:00,
2013-03-20 21:18:00,69.3,63.5,30.09,ESE,112,0.0,0.0,82,0.00,SCT,BKN,0.00,0.0,WeatherDisplay:10.37,2013-03-21 07:18:00,
2013-03-20 21:23:00,69.3,63.5,30.09,ESE,112,0.0,0.0,82,0.00,SCT,BKN,0.00,0.0,WeatherDisplay:10.37,2013-03-21 07:23:00,
2013-03-20 21:28:00,69.3,63.5,30.09,ESE,112,0.0,0.0,82,0.00,SCT,BKN,0.00,0.0,WeatherDisplay:10.37,2013-03-21 07:28:00,
2013-03-20 21:34:00,69.3,63.5,30.12,ESE,112,0.0,0.0,82,0.00,SCT,BKN,0.00,0.0,WeatherDisplay:10.37,2013-03-21 07:34:00,
2013-03-20 21:39:00,69.3,63.9,30.12,ESE,112,1.2,2.3,83,0.00,SCT,BKN,0.00,0.0,WeatherDisplay:10.37,2013-03-21 07:39:00,
2013-03-20 21:44:00,69.1,63.7,30.12,ESE,112,1.2,1.6,83,0.00,SCT,BKN,0.00,0.0,WeatherDisplay:10.37,2013-03-21 07:44:00,
2013-03-20 21:49:00,69.1,63.7,30.12,ESE,112,1.2,1.6,83,0.00,SCT,BKN,0.00,0.0,WeatherDisplay:10.37,2013-03-21 07:49:00,
2013-03-20 21:54:00,68.9,63.5,30.12,ESE,112,0.0,0.0,83,0.00,SCT,BKN,0.00,0.0,WeatherDisplay:10.37,2013-03-21 07:54:00,
2013-03-20 21:59:00,68.9,63.5,30.12,ESE,112,0.0,0.0,83,0.00,SCT,BKN,0.00,0.0,WeatherDisplay:10.37,2013-03-21 07:59:00,
2013-03-20 22:04:00,68.9,63.5,30.12,ESE,112,0.0,0.0,83,0.00,SCT,BKN,0.00,0.0,WeatherDisplay:10.37,2013-03-21 08:04:00,
2013-03-20 22:09:00,68.9,63.5,30.12,ESE,112,0.0,0.0,83,0.00,SCT,BKN,0.00,0.0,WeatherDisplay:10.37,2013-03-21 08:09:00,
2013-03-20 22:14:00,68.9,63.5,30.12,ESE,112,0.0,0.0,83,0.00,SCT,BKN,0.00,0.0,WeatherDisplay:10.37,2013-03-21 08:14:00,
2013-03-20 22:25:00,68.7,63.0,30.12,ESE,112,0.0,0.0,82,0.00,SCT,BKN,0.00,0.0,WeatherDisplay:10.37,2013-03-21 08:25:00,
2013-03-20 22:30:00,68.7,63.0,30.12,ESE,112,0.0,0.0,82,0.00,SCT,BKN,0.00,0.0,WeatherDisplay:10.37,2013-03-21 08:30:00,
2013-03-20 22:35:00,68.7,63.0,30.12,ESE,112,0.0,0.0,82,0.00,SCT,BKN,0.00,0.0,WeatherDisplay:10.37,2013-03-21 08:35:00,
2013-03-20 22:40:00,68.7,63.0,30.12,ESE,112,0.0,0.0,82,0.00,SCT,BKN,0.00,0.0,WeatherDisplay:10.37,2013-03-21 08:40:00,
2013-03-20 22:45:00,68.6,62.8,30.12,ESE,112,0.0,0.0,82,0.00,SCT,BKN,0.00,0.0,WeatherDisplay:10.37,2013-03-21 08:45:00,
2013-03-20 22:50:00,68.5,62.5,30.12,ESE,112,1.0,1.0,81,0.00,SCT,BKN,0.00,0.0,WeatherDisplay:10.37,2013-03-21 08:50:00,
2013-03-20 22:55:00,68.5,62.5,30.12,ESE,112,0.0,0.0,81,0.00,SCT,BKN,0.00,0.0,WeatherDisplay:10.37,2013-03-21 08:55:00,
2013-03-20 23:00:00,68.5,62.1,30.12,ESE,112,0.0,0.0,80,0.00,SCT,BKN,0.00,0.0,WeatherDisplay:10.37,2013-03-21 09:00:00,
2013-03-20 23:05:00,68.4,61.9,30.12,ESE,112,1.2,1.4,80,0.00,SCT,BKN,0.00,0.0,WeatherDisplay:10.37,2013-03-21 09:05:00,
2013-03-20 23:10:00,68.4,61.9,30.12,ESE,112,0.0,0.0,80,0.00,SCT,BKN,0.00,0.0,WeatherDisplay:10.37,2013-03-21 09:10:00,
2013-03-20 23:16:00,68.5,61.8,30.12,ESE,112,1.4,1.6,79,0.00,SCT,BKN,0.00,0.0,WeatherDisplay:10.37,2013-03-21 09:16:00,
2013-03-20 23:21:00,68.5,61.8,30.12,ESE,112,0.0,1.2,79,0.00,SCT,BKN,0.00,0.0,WeatherDisplay:10.37,2013-03-21 09:21:00,
2013-03-20 23:26:00,68.5,61.4,30.12,ESE,112,1.4,1.4,78,0.00,SCT,BKN,0.00,0.0,WeatherDisplay:10.37,2013-03-21 09:26:00,
2013-03-20 23:31:00,68.5,61.0,30.12,ESE,112,1.4,2.3,77,0.00,SCT,BKN,0.00,0.0,WeatherDisplay:10.37,2013-03-21 09:31:00,
2013-03-20 23:36:00,68.5,61.0,30.12,ESE,112,0.9,1.2,77,0.00,SCT,BKN,0.00,0.0,WeatherDisplay:10.37,2013-03-21 09:36:00,
2013-03-20 23:41:00,68.4,60.9,30.12,ESE,112,1.4,2.3,77,0.00,SCT,BKN,0.00,0.0,WeatherDisplay:10.37,2013-03-21 09:41:00,
2013-03-20 23:46:00,68.4,60.9,30.12,ESE,112,0.0,0.0,77,0.00,SCT,BKN,0.00,0.0,WeatherDisplay:10.37,2013-03-21 09:46:00,
2013-03-20 23:51:00,68.2,61.1,30.09,ESE,112,0.0,0.0,78,0.00,SCT,BKN,0.00,0.0,WeatherDisplay:10.37,2013-03-21 09:51:00,
2013-03-20 23:56:00,67.8,61.1,30.09,ESE,112,1.2,1.6,79,0.00,SCT,BKN,0.00,0.0,WeatherDisplay:10.37,2013-03-21 09:56:00,